Theta_e
346 344 342 341 341 339 335 335 335 335 335 334 332 332 332 333 331 330 330 331 333 334 335 335 334 334 334 334 334 332 331 331 331 331 331 330 329 330 330 330 331 332 332 332 332 333 334 335 335 334 335 335 333 332 331 328 325 323 322 321 320 321 322 323 324 323 322 321 321 321 321 322 323 323 322 321 320 320 319 319 318 319 319 320 320
346 344 342 341 342 338 335 335 335 335 335 334 333 332 332 333 333 332 332 332 333 334 334 334 334 334 334 334 332 331 331 331 331 330 329 329 329 329 330 330 331 332 333 333 332 332 334 335 336 335 335 335 334 333 331 329 327 326 326 324 322 321 321 322 323 323 322 321 321 321 321 322 323 323 322 322 321 321 320 319 318 319 319 320 320
346 345 343 342 341 338 335 336 335 335 335 334 333 333 333 334 335 334 332 331 332 333 333 333 333 333 333 333 332 331 332 332 331 330 329 329 329 330 330 330 330 331 332 333 332 332 333 332 332 332 333 335 335 334 333 330 329 328 328 326 324 322 321 321 322 322 322 322 322 322 322 322 323 324 323 322 322 321 320 319 319 319 319 319 320
346 345 343 342 340 338 336 335 335 335 335 335 335 334 334 335 335 334 333 331 331 332 332 333 333 333 333 332 331 331 332 331 330 330 329 329 330 330 329 328 329 330 331 332 332 331 332 331 330 330 331 333 334 334 333 332 331 329 329 327 326 325 324 322 321 322 322 322 322 322 322 323 324 324 324 322 321 321 320 319 319 319 319 319 320
347 344 343 341 339 337 336 336 336 336 337 336 336 336 335 335 335 334 333 331 330 332 332 333 333 333 333 333 332 331 331 330 330 330 329 329 329 329 328 327 329 330 331 330 330 330 330 331 329 329 330 331 332 332 332 332 331 330 329 329 327 327 326 325 323 323 323 322 322 322 323 324 324 325 323 322 321 320 319 319 319 319 319 319 320
347 345 343 340 338 336 335 337 334 332 336 338 337 337 336 335 334 333 332 331 331 332 333 334 334 334 333 333 332 330 330 330 330 330 329 328 328 328 327 328 328 329 329 328 327 329 329 328 327 326 327 328 328 328 329 330 330 330 329 329 328 327 326 326 325 324 324 323 323 323 324 324 324 324 322 321 321 320 319 319 319 319 319 319 319
346 346 344 340 337 336 337 336 326 326 335 340 338 337 335 334 334 332 331 332 332 334 334 334 334 333 332 331 330 330 329 331 331 330 329 327 327 327 327 328 328 328 329 327 326 326 326 325 324 323 324 325 326 327 328 329 329 329 328 328 328 327 327 326 325 325 324 323 323 324 324 324 324 323 321 320 320 320 319 319 319 319 319 319 319
347 345 343 340 337 336 336 330 320 324 336 338 336 337 336 335 333 331 332 333 333 335 335 333 332 331 330 329 330 330 331 332 331 330 328 327 327 328 328 328 328 328 329 328 325 323 323 323 324 324 325 326 327 327 328 329 329 328 328 328 327 327 327 326 326 324 324 323 324 324 324 324 323 322 320 320 319 319 319 319 319 318 318 319 319
346 344 341 338 336 336 335 327 324 332 338 336 335 337 336 335 334 332 333 335 335 335 334 332 330 330 330 331 331 332 333 332 332 331 330 328 327 327 326 328 328 328 328 328 326 325 325 326 326 327 328 328 328 328 328 328 328 328 328 328 328 328 327 326 325 324 324 324 324 324 324 323 322 321 320 319 318 318 318 318 318 319 319 319 320
345 341 338 337 337 337 335 330 330 334 335 334 335 337 337 337 335 334 335 335 335 336 334 332 331 331 331 331 332 333 333 333 333 332 331 329 326 326 327 327 328 328 327 327 327 327 326 325 325 325 326 328 328 328 327 326 327 328 329 328 328 327 327 326 325 324 324 324 324 324 324 322 321 320 319 318 318 318 318 318 318 318 319 319 320
342 339 338 338 338 337 334 330 330 330 329 333 336 337 337 337 336 335 336 335 335 336 334 332 332 331 332 332 332 333 333 334 333 331 331 330 327 326 326 327 328 328 327 327 327 326 324 323 323 323 323 325 327 327 326 325 326 327 328 327 327 328 327 326 326 325 324 324 324 324 323 321 320 319 318 318 318 318 317 317 318 318 319 320 320
341 338 339 338 338 338 333 330 330 329 329 333 337 338 337 337 337 337 336 335 336 335 334 333 332 332 332 332 332 333 333 334 333 332 330 329 328 326 326 327 328 327 327 326 325 324 323 323 324 324 323 324 326 327 327 325 325 325 326 326 326 327 328 327 327 326 326 325 324 323 322 320 320 318 318 318 317 317 317 317 317 318 319 319 320
340 338 339 338 339 338 333 329 330 331 331 333 337 338 337 337 337 337 335 335 335 335 334 333 333 332 332 332 333 333 332 333 333 333 331 330 329 328 327 327 328 328 327 326 325 325 325 324 325 325 325 325 326 326 326 325 325 325 325 324 325 325 326 326 326 327 326 325 325 323 321 320 319 318 317 317 317 317 317 317 318 318 318 319 319
339 338 338 338 338 338 334 329 331 333 333 335 338 338 337 337 336 336 335 335 335 335 334 334 334 332 331 332 332 332 332 332 333 333 333 332 330 329 328 327 328 328 327 326 326 325 325 325 326 327 326 326 326 326 326 325 326 326 325 324 324 324 325 326 326 326 325 324 324 323 321 320 319 317 316 316 317 317 317 317 317 317 318 318 318
339 338 338 338 338 337 334 332 333 335 335 336 337 337 337 337 336 335 335 335 335 335 334 334 333 332 331 332 331 331 331 331 332 333 334 334 333 331 328 328 328 328 326 326 326 325 325 325 326 326 325 326 326 325 326 327 327 327 326 325 325 325 325 326 327 326 323 322 321 321 321 320 319 317 316 316 317 317 317 317 317 317 318 318 318
339 338 338 339 338 336 332 332 335 336 337 337 337 337 337 336 336 335 335 335 334 335 334 333 333 331 331 332 332 331 332 332 333 334 334 333 333 330 328 328 328 327 326 326 325 325 325 325 324 324 323 323 323 325 326 327 327 327 326 325 324 323 323 324 325 325 323 321 321 321 321 321 320 318 316 316 317 317 317 317 317 317 318 318 319
339 339 339 339 338 335 332 334 337 337 337 336 336 337 337 337 336 336 335 335 335 335 334 333 331 331 331 332 332 333 332 333 333 333 332 331 331 329 329 328 327 326 326 326 325 324 325 325 323 322 321 321 323 325 326 326 326 325 324 324 323 322 323 323 323 322 322 322 321 321 321 322 321 319 317 316 317 317 317 317 317 317 318 319 319
340 339 339 339 340 338 335 336 337 337 337 337 336 337 337 336 336 336 335 335 335 335 334 333 332 332 332 332 333 333 333 333 331 330 329 329 329 329 329 328 327 327 326 325 324 324 325 323 321 321 321 322 324 325 326 326 325 324 322 322 322 322 322 322 322 322 321 321 320 320 321 320 320 319 318 317 317 317 317 317 317 318 318 319 319
340 340 340 339 339 339 338 337 337 337 337 337 336 337 337 336 336 336 336 335 335 335 335 334 333 333 332 333 333 332 332 330 328 328 328 328 329 329 328 327 327 326 325 324 324 325 323 321 321 321 321 323 325 326 326 325 323 323 322 322 321 320 321 320 320 320 319 318 318 319 319 319 318 317 317 317 317 316 316 317 317 318 318 319 319
341 341 340 339 338 339 339 338 337 337 336 336 337 338 338 337 337 336 336 335 335 334 334 333 333 333 332 332 331 330 329 328 327 327 326 327 328 328 328 327 326 325 324 324 325 324 321 320 321 321 322 324 325 325 324 323 323 323 322 321 318 318 318 318 318 317 316 316 316 316 316 316 316 315 315 316 317 316 316 316 317 318 318 319 319
340 340 339 338 338 339 339 339 338 336 336 337 338 338 338 337 336 336 335 335 334 334 333 333 333 332 331 330 329 328 328 327 326 326 326 325 326 326 326 326 325 324 325 325 323 321 319 319 320 322 323 324 324 323 323 323 323 322 320 318 316 316 316 315 315 315 314 314 314 314 314 314 314 314 314 315 316 316 316 316 316 317 318 319 320
340 338 338 338 338 338 338 338 335 332 335 338 338 337 337 336 336 336 334 334 334 334 334 333 330 329 329 327 327 328 328 326 326 325 325 325 325 325 325 324 324 324 325 323 320 319 319 319 320 322 323 323 323 323 323 322 321 318 316 315 315 314 314 313 314 313 312 312 312 312 313 313 312 313 313 314 315 315 315 316 316 317 318 319 321
339 337 337 337 337 337 335 333 330 330 335 337 336 336 336 335 335 335 334 334 335 333 332 330 326 326 327 326 326 327 326 326 326 326 325 325 324 324 324 324 324 324 322 320 319 319 319 320 321 321 321 321 322 323 322 320 317 316 314 314 313 313 312 312 312 311 310 311 311 311 312 312 312 312 312 312 313 314 315 315 316 317 318 319 322
337 337 336 337 336 335 332 331 331 333 336 337 336 336 336 335 335 335 335 335 333 330 327 326 325 325 325 325 326 326 326 326 326 326 325 324 324 324 324 324 323 321 320 318 319 319 319 320 320 320 320 321 322 322 319 317 315 314 313 312 311 311 311 310 310 309 309 309 309 310 311 310 311 311 311 311 312 314 314 315 317 317 318 320 322
335 336 335 336 334 333 332 332 333 335 337 337 336 336 335 334 335 334 333 331 328 325 324 325 326 325 325 326 327 327 326 326 325 324 324 324 324 324 323 322 321 319 319 319 318 319 319 319 319 320 322 322 321 318 315 314 313 312 311 310 310 309 308 308 308 307 308 308 308 309 309 309 309 310 310 311 312 313 314 315 316 317 317 319 321
336 335 335 335 333 332 332 333 334 336 337 335 336 335 335 334 333 330 329 327 325 325 325 325 326 326 327 327 327 326 326 325 324 324 323 323 323 322 321 320 319 319 318 318 318 318 318 319 320 321 321 319 316 314 312 312 311 310 310 309 308 306 306 306 306 306 306 307 307 308 308 308 308 309 309 310 312 313 313 314 315 316 317 318 320
336 335 335 334 333 333 333 334 335 335 335 334 335 334 333 331 328 327 327 326 325 324 324 325 326 327 328 328 326 326 325 324 324 323 323 323 322 321 320 319 318 318 318 317 317 318 319 319 319 318 317 314 313 312 312 310 309 308 307 306 305 304 304 305 305 305 305 305 306 306 306 307 307 308 309 310 311 312 313 313 314 316 316 317 319
336 336 335 335 334 334 334 334 333 332 331 332 332 331 328 327 326 327 326 325 325 324 325 327 329 329 328 326 325 325 325 324 323 323 323 323 322 320 319 318 317 317 317 316 317 318 318 317 317 316 315 313 312 311 310 308 307 305 304 304 303 303 303 304 305 304 304 304 305 305 305 305 306 307 307 309 310 311 312 312 313 314 316 316 318
336 335 334 334 333 333 332 332 330 329 329 329 329 327 327 327 327 326 326 326 326 327 328 329 329 327 326 325 325 325 325 324 324 323 323 322 321 319 318 317 316 316 315 315 317 318 317 315 315 314 313 312 311 309 306 304 303 302 301 301 302 301 302 304 303 303 303 303 303 304 304 304 305 306 306 307 309 310 310 311 312 313 315 316 317
334 333 333 333 333 332 331 329 328 328 328 328 328 327 326 326 327 328 328 328 328 328 327 327 325 324 324 324 323 324 324 324 324 323 322 321 319 318 316 315 315 315 314 315 317 317 316 314 313 312 311 309 308 305 303 302 301 301 300 300 300 300 301 302 302 302 302 303 303 303 303 304 304 305 305 306 308 309 309 310 311 312 314 315 316
327 329 332 332 332 331 330 329 328 327 326 326 326 326 324 324 325 326 327 326 325 325 324 324 323 323 322 322 322 323 323 324 323 321 320 318 318 316 315 314 314 314 314 315 316 315 314 313 311 310 308 306 304 303 303 302 301 301 300 299 299 299 300 301 302 302 302 302 302 302 303 303 303 303 304 305 306 307 308 309 310 311 313 314 315
322 322 325 327 327 328 328 327 326 325 325 324 324 324 323 322 322 322 323 323 323 323 323 322 322 322 321 320 320 320 320 320 319 318 317 316 316 315 314 313 313 313 314 314 313 312 311 310 308 306 305 304 303 303 303 302 301 300 300 298 298 298 299 300 301 302 302 302 301 301 302 302 302 303 303 304 305 306 307 308 308 310 312 313 314
325 324 324 324 325 327 328 327 325 325 323 322 322 323 324 323 321 320 320 321 321 321 321 321 321 320 319 319 319 318 318 317 316 315 315 315 315 315 313 312 312 312 312 312 311 310 308 307 305 304 304 304 303 303 302 302 301 300 299 298 297 296 297 300 301 301 301 301 301 301 301 301 301 302 302 303 304 304 305 306 307 308 310 312 313
325 323 323 323 323 327 328 327 325 323 323 322 323 323 324 323 322 321 319 318 319 319 319 318 318 318 317 317 316 316 315 314 312 312 312 312 314 314 313 313 313 312 311 311 309 308 306 305 305 305 305 304 304 303 301 301 300 299 298 298 296 295 296 299 301 301 301 300 300 300 301 301 301 301 301 302 302 303 304 305 305 307 309 310 312
325 323 324 324 324 326 328 326 324 323 324 324 324 324 323 323 322 321 320 319 317 316 316 315 315 315 314 313 313 312 311 310 310 311 311 311 312 313 314 313 313 312 311 309 307 306 306 305 305 306 305 304 304 302 300 300 299 298 298 297 295 294 296 300 301 300 300 300 299 300 300 300 300 300 301 301 302 302 303 304 304 305 307 309 311
323 322 324 326 328 328 328 326 325 325 325 325 325 324 324 323 321 320 320 319 317 316 315 314 313 312 311 311 310 310 310 310 310 311 311 311 312 313 314 313 312 312 310 308 306 306 306 306 305 305 304 304 302 301 300 299 298 297 296 295 293 294 298 300 300 300 299 299 299 299 300 300 300 300 300 301 301 301 302 302 303 304 305 307 309
323 324 328 329 330 330 328 327 327 326 326 325 325 324 323 321 320 319 319 317 317 317 315 314 312 311 310 310 310 310 310 310 310 310 310 310 311 312 313 313 312 310 308 307 306 306 305 305 305 304 303 302 301 300 300 299 298 296 294 292 292 296 299 300 299 300 299 298 299 299 299 299 299 299 300 300 301 301 301 302 302 303 304 306 308
329 330 330 330 330 329 328 328 327 326 326 325 324 323 322 320 320 319 318 317 317 317 316 314 312 313 313 312 311 311 311 311 311 310 310 310 309 310 311 311 310 308 307 306 305 304 304 304 304 302 301 301 300 300 299 298 296 293 290 290 293 298 300 299 299 300 299 298 298 299 299 299 299 299 299 300 300 300 300 301 301 302 303 304 306
331 330 329 329 329 329 328 328 327 327 327 326 324 323 322 321 320 319 318 317 317 317 316 314 313 314 316 314 313 313 313 313 313 312 311 310 310 309 309 309 308 307 306 305 304 304 303 303 302 302 301 300 300 299 299 296 293 289 288 291 296 298 299 299 300 300 299 297 297 298 298 298 298 298 299 299 299 299 300 300 301 301 302 303 304
329 329 329 329 329 328 328 328 328 327 328 327 326 325 323 322 321 320 319 318 318 317 316 315 315 316 316 315 314 314 314 313 313 312 312 311 311 310 309 308 307 307 305 305 304 304 303 303 302 301 301 300 299 299 297 293 290 288 289 294 297 298 298 299 299 299 299 297 297 297 298 298 298 298 298 298 299 299 299 300 300 301 301 302 303
328 328 328 328 328 328 328 327 327 327 326 326 326 325 324 323 322 321 319 319 319 318 317 316 317 317 316 315 315 314 313 312 311 311 311 311 312 311 309 307 307 306 305 305 304 303 303 302 301 300 300 299 298 298 295 291 288 288 290 295 298 298 298 299 299 299 299 297 297 297 298 297 297 298 298 298 299 299 299 300 300 300 301 302 302
328 328 328 328 327 327 327 327 326 326 324 324 324 324 324 324 323 322 320 320 319 319 318 318 317 317 316 315 315 313 312 311 310 310 310 311 312 311 309 307 306 306 304 304 303 303 303 302 300 300 299 298 297 297 294 290 288 288 290 294 298 298 298 298 299 298 298 297 296 297 297 297 297 297 298 298 298 298 298 299 300 300 300 301 302
327 327 328 327 327 326 326 326 325 324 322 322 321 321 321 321 321 321 320 321 321 321 320 318 318 317 316 315 314 312 310 310 310 309 309 309 310 309 307 306 305 305 304 303 303 302 302 301 300 299 298 297 297 296 293 289 288 287 289 293 297 297 297 298 298 298 298 297 296 297 297 296 297 297 297 298 298 298 298 299 299 299 300 300 301
326 325 325 325 326 326 326 325 324 322 321 320 319 318 318 318 318 318 319 319 320 320 320 318 318 317 316 314 313 311 309 309 309 308 308 308 307 307 306 305 304 304 303 303 302 302 301 301 300 299 298 297 297 295 291 288 288 288 289 293 296 297 297 297 298 297 297 297 296 296 296 296 296 297 297 297 298 298 298 298 299 299 299 300 300
324 323 323 323 324 324 325 324 323 322 321 320 319 318 317 318 318 317 318 317 318 318 318 317 317 317 316 313 311 309 309 309 308 308 307 307 306 306 305 304 304 304 303 303 302 301 301 300 299 298 297 297 296 294 290 288 287 288 288 291 295 297 297 297 297 297 297 296 296 296 296 295 295 296 297 297 297 297 297 298 298 298 298 299 300
322 322 322 321 322 323 323 323 322 322 321 321 320 319 318 318 318 318 317 317 317 316 315 315 315 315 314 312 310 309 309 308 308 308 307 306 306 305 305 304 304 304 303 303 302 301 300 299 298 298 297 296 296 295 292 289 288 287 287 289 293 296 296 296 296 297 296 296 295 295 295 295 294 296 297 297 297 297 297 298 298 298 298 298 299
320 320 320 320 320 321 322 322 322 320 320 319 320 319 319 318 318 317 317 317 317 316 315 314 313 312 312 311 310 309 308 307 307 307 307 306 305 305 305 305 305 304 303 302 301 301 300 299 298 297 296 296 296 295 294 291 289 287 287 288 292 295 296 296 296 296 296 294 294 295 295 294 294 295 296 297 297 296 297 298 298 297 298 298 298
317 317 318 319 320 321 321 321 320 319 318 319 319 319 319 318 318 317 317 317 316 315 315 313 312 311 311 311 310 309 307 306 306 306 305 305 305 304 305 305 305 304 303 302 301 300 299 298 297 296 296 296 296 295 294 293 291 289 287 287 289 293 296 296 295 296 295 293 293 294 295 294 293 294 296 296 296 296 296 297 298 297 297 298 298
314 314 314 315 316 317 318 320 320 319 319 319 319 318 318 318 318 317 317 316 316 315 314 314 312 311 311 310 309 308 306 305 305 304 304 304 304 304 304 304 304 304 303 302 301 300 299 298 297 296 296 296 296 295 294 294 293 291 289 287 288 291 295 296 296 295 295 294 293 294 295 293 293 294 296 296 296 296 296 297 297 297 296 297 298
312 312 311 310 310 310 312 314 316 317 317 318 318 319 318 318 317 317 317 316 316 316 315 314 313 312 311 310 309 307 306 305 304 304 304 304 303 304 304 304 304 304 303 301 300 300 299 297 297 296 296 296 295 295 295 295 294 292 291 289 287 288 292 295 295 295 295 294 293 293 294 293 293 294 295 295 295 296 296 297 297 297 296 297 298
311 310 309 308 308 308 308 308 309 310 310 312 313 314 315 317 318 317 317 316 316 315 315 314 314 313 312 311 310 308 307 306 305 305 304 304 304 304 304 304 303 303 302 301 300 299 298 297 297 297 296 296 296 295 295 295 294 293 293 291 288 287 290 293 295 295 295 293 293 293 294 293 293 294 295 295 295 295 296 296 297 296 296 297 298
Wind_Speed
41 42 42 42 40 39 36 34 31 28 26 24 22 22 21 19 18 16 15 15 15 16 15 15 14 12 11 11 10 10 11 11 11 12 12 12 12 12 13 14 15 16 16 16 16 17 19 20 20 20 20 21 21 20 19 18 17 17 17 17 19 18 18 16 11 12 22 25 23 25 28 29 32 34 36 37 38 38 37 37 37 36 35 36 36
43 43 41 42 42 40 37 35 32 29 26 24 22 21 21 21 19 18 17 16 16 16 16 15 13 12 11 11 10 10 11 11 12 12 13 14 14 14 14 15 16 16 16 17 17 17 18 19 20 20 20 22 22 21 22 20 18 21 22 21 24 23 19 19 17 13 18 25 24 26 29 29 31 35 37 37 39 39 38 38 38 37 36 36 36
43 41 41 42 41 40 38 36 32 27 23 21 20 20 22 22 21 20 19 17 17 17 16 15 13 12 11 11 11 12 13 13 13 13 14 15 16 15 13 13 14 15 16 17 17 17 17 18 18 18 18 20 22 23 24 23 22 24 25 24 26 26 22 22 22 17 18 23 24 24 27 29 32 35 36 37 38 38 37 38 39 38 37 36 37
39 40 41 41 40 40 35 30 26 23 20 19 20 21 23 24 23 21 19 17 17 17 16 16 15 14 13 13 13 14 14 15 14 15 16 16 15 14 12 11 12 13 15 15 15 14 14 15 16 16 17 19 22 23 24 25 26 25 26 27 27 28 28 27 25 23 21 21 23 25 26 28 32 35 36 37 38 37 37 37 37 38 39 38 37
38 39 39 39 39 34 27 24 22 18 19 22 23 25 26 25 24 22 19 18 18 17 17 18 17 16 16 15 14 15 15 15 15 15 15 15 14 13 12 11 12 12 13 14 13 12 12 14 15 15 16 18 19 21 22 24 25 26 27 28 28 29 31 29 27 27 25 23 24 27 27 28 31 34 35 35 36 38 38 38 37 36 37 37 36
38 38 38 37 33 26 26 27 24 20 23 27 28 29 29 26 24 22 20 19 18 18 18 18 18 18 17 16 16 15 15 15 15 15 14 14 13 12 12 12 12 12 13 13 13 13 13 14 14 15 16 18 18 19 21 22 23 25 26 27 28 28 29 28 27 27 26 24 24 26 27 27 28 31 34 34 33 35 37 39 38 35 34 35 37
37 36 36 32 25 28 32 31 29 28 30 31 30 31 29 26 24 22 20 20 18 18 18 18 18 17 15 15 15 16 16 16 15 14 13 13 12 12 12 12 13 13 14 14 14 14 14 14 15 15 16 18 20 20 21 21 22 23 24 25 26 26 26 27 27 26 25 24 23 24 25 26 26 29 33 33 31 32 33 33 35 35 35 35 36
36 35 31 24 27 36 35 30 30 32 33 31 31 31 30 27 24 22 21 21 19 19 18 17 17 15 14 13 14 15 16 15 15 15 14 13 13 13 13 13 13 14 15 16 16 14 14 15 16 18 19 19 20 20 20 20 21 22 23 23 24 24 24 25 25 24 23 22 21 22 23 25 26 28 30 29 26 28 29 30 32 35 36 36 36
32 24 19 24 33 36 34 30 27 28 30 31 30 31 31 29 25 23 23 22 21 20 18 18 17 15 14 14 14 15 16 16 16 16 15 14 14 14 14 14 15 16 16 17 17 17 16 17 18 19 20 20 19 18 18 18 20 22 23 23 23 23 23 23 23 22 21 20 19 20 19 21 24 26 26 25 24 27 31 32 33 35 35 36 38
22 22 27 33 36 35 35 30 23 24 31 33 31 32 33 30 27 26 26 24 23 21 20 20 18 16 15 15 16 18 18 18 17 17 17 16 15 15 15 16 16 16 17 18 18 18 16 17 19 20 20 20 19 18 18 18 19 21 23 23 22 23 23 22 22 22 20 18 18 18 16 18 23 24 25 28 29 29 31 30 31 35 34 30 33
25 30 34 38 39 38 35 27 23 29 34 34 33 33 33 31 29 29 28 26 25 23 23 22 20 18 18 18 19 21 21 20 18 17 18 17 17 16 16 18 18 17 18 17 16 15 14 15 17 19 19 19 17 17 18 18 19 20 21 20 20 21 21 22 22 22 20 18 18 18 17 18 23 25 26 31 31 28 30 30 30 33 30 22 21
30 33 36 39 39 35 31 24 25 34 35 35 35 33 32 32 32 32 31 28 26 25 25 24 22 21 21 21 22 23 22 21 19 18 19 19 19 18 19 20 20 18 17 16 14 12 13 14 16 17 18 17 16 17 18 19 19 19 20 19 18 18 19 20 21 21 21 19 18 20 21 21 23 24 26 30 31 30 32 32 30 30 30 25 21
33 34 36 37 34 30 27 24 31 37 36 36 36 33 33 33 34 34 33 30 28 27 28 27 24 23 23 24 24 23 22 21 20 21 21 21 21 22 22 22 21 20 17 15 13 12 13 14 14 15 16 15 15 16 18 19 19 19 20 19 19 19 18 19 20 21 22 22 21 23 25 25 24 26 29 31 33 33 32 32 32 31 31 30 29
31 31 31 30 30 31 31 32 36 37 35 34 34 33 34 35 35 36 34 31 30 30 30 29 26 25 25 25 24 24 23 22 22 22 23 24 24 24 24 22 21 20 18 15 14 13 13 13 13 15 15 15 15 16 17 18 19 19 20 20 20 21 21 21 21 21 22 22 22 25 28 29 28 30 33 34 33 34 33 33 35 35 35 37 39
33 35 36 37 39 39 36 35 38 37 34 34 34 33 34 35 36 36 35 34 33 32 31 29 27 26 26 26 26 25 24 23 23 24 25 25 25 25 24 22 21 20 19 17 16 15 13 13 13 15 15 16 16 17 18 19 18 19 20 20 21 22 22 23 24 24 23 22 23 26 29 31 33 34 35 36 36 37 37 37 40 40 41 41 39
37 40 42 44 43 40 37 40 42 39 35 33 32 31 33 36 38 38 37 36 34 32 30 28 26 26 27 28 28 27 26 25 23 23 24 24 24 23 22 21 20 20 20 19 17 15 13 12 13 14 16 17 17 16 16 17 16 16 18 19 21 23 24 25 25 25 24 23 26 29 32 34 36 36 36 36 38 41 40 38 40 40 36 32 29
37 38 38 39 39 40 42 42 39 35 33 30 30 32 35 37 39 40 38 36 35 33 31 28 27 27 28 28 27 26 25 23 21 21 21 20 19 20 20 20 19 20 20 20 18 15 13 12 13 14 16 17 16 14 14 13 13 14 17 19 22 24 26 26 25 25 25 27 31 33 34 35 35 36 38 37 39 42 37 33 36 37 30 20 17
34 35 37 39 41 44 45 39 34 33 32 30 31 34 36 39 41 39 37 36 35 33 32 30 28 28 28 25 22 21 21 19 16 16 17 16 17 18 19 19 19 20 21 20 18 15 12 12 13 14 15 15 14 12 12 12 13 15 17 19 20 22 24 24 26 29 31 33 34 33 33 33 33 35 38 36 37 38 35 32 36 37 30 21 17
36 40 42 44 43 42 38 33 33 35 32 30 32 35 37 39 39 37 36 36 34 32 31 29 28 26 23 19 16 15 16 15 13 13 14 15 16 17 18 18 19 21 20 19 17 15 13 12 12 13 14 13 12 11 12 13 15 15 16 16 16 18 21 23 26 31 33 34 33 32 32 33 33 34 34 33 34 37 36 36 38 37 33 30 27
41 41 41 41 39 34 31 33 38 37 32 32 35 36 37 36 34 32 33 33 31 29 26 24 23 19 15 13 11 10 12 13 12 12 14 14 15 16 18 19 19 20 18 17 16 15 14 13 11 12 12 11 10 11 13 14 14 13 12 12 13 16 21 24 26 27 28 28 28 28 30 32 32 31 31 32 34 37 39 39 40 39 37 36 33
38 37 36 37 35 33 34 40 40 34 31 32 31 29 29 28 27 28 29 28 25 23 20 19 17 13 11 11 8 7 12 14 13 12 12 12 14 15 17 18 18 17 16 15 15 15 14 13 11 11 11 11 10 11 12 11 10 9 10 11 13 16 19 22 24 23 22 23 24 25 27 28 29 30 32 33 35 38 41 43 43 42 41 39 36
35 34 34 33 34 35 36 35 31 27 28 28 24 21 20 21 23 25 25 22 20 19 18 17 13 10 10 9 6 10 15 15 12 11 11 12 14 15 16 17 16 15 15 14 14 14 13 12 12 11 11 11 11 10 9 8 8 8 10 12 14 16 17 19 20 19 19 20 22 23 25 26 28 31 33 35 37 39 43 44 45 45 46 45 38
32 31 32 31 32 31 27 23 23 24 24 20 15 14 15 17 20 22 21 20 20 19 18 16 12 9 8 8 9 14 16 13 11 11 12 13 15 15 15 15 14 14 14 13 13 13 13 12 11 11 11 11 9 6 6 6 7 8 11 12 13 14 15 16 16 16 18 19 20 22 24 26 28 31 33 35 39 41 41 43 45 47 50 49 36
29 28 30 29 27 23 19 16 19 21 16 10 7 9 11 15 19 21 22 21 19 17 16 16 13 9 10 11 12 14 14 11 11 13 13 14 14 14 14 13 13 13 12 12 13 13 13 12 12 12 11 8 5 3 4 5 7 9 11 12 12 12 13 14 15 17 18 19 20 22 25 27 28 30 33 35 38 40 39 41 45 48 48 46 33
26 26 26 26 24 20 17 17 18 15 9 7 8 10 11 15 20 22 22 21 19 17 16 17 13 10 11 11 13 13 12 12 13 13 13 13 13 12 12 11 11 11 11 12 13 13 13 13 12 10 7 4 2 3 4 5 7 9 9 9 10 11 13 14 15 17 19 20 21 22 25 29 30 31 33 34 36 37 38 40 45 47 47 44 34
21 21 22 21 19 18 18 17 15 12 10 10 10 11 13 19 23 23 22 20 19 18 17 15 13 11 12 13 13 12 12 12 13 13 13 13 12 11 11 10 10 10 11 12 12 12 12 11 8 4 2 1 1 3 4 5 6 7 7 8 9 10 12 14 16 17 19 20 21 23 25 28 30 31 33 34 34 35 37 38 40 43 45 43 34
18 17 16 13 11 11 11 9 10 13 12 10 9 10 14 20 23 23 22 20 18 16 15 14 14 14 14 13 12 12 12 13 13 14 14 13 12 11 10 9 9 10 10 11 11 10 8 4 1 1 1 1 1 3 5 6 6 7 6 7 9 11 12 14 14 15 17 19 21 22 25 27 29 31 33 33 33 34 36 36 35 38 43 41 31
16 17 17 15 12 11 9 9 13 13 9 7 8 10 15 20 21 21 20 19 17 16 16 17 17 16 15 13 12 12 13 14 14 14 14 13 11 10 10 9 9 9 10 10 9 6 2 2 2 2 1 2 4 6 7 6 6 7 8 9 10 12 13 14 14 16 17 18 20 22 25 27 29 30 31 32 32 33 35 36 34 35 39 37 28
17 17 17 16 15 14 14 14 14 11 10 10 12 15 18 19 19 18 17 16 16 16 16 17 16 15 13 11 11 12 13 13 14 14 13 12 11 10 9 8 8 9 9 9 6 2 3 2 1 1 2 4 6 7 7 8 9 10 11 12 13 14 15 15 16 18 18 19 21 23 25 26 28 29 30 31 32 33 34 34 33 33 34 32 27
17 16 14 14 15 14 13 13 13 13 12 11 12 16 17 16 15 15 14 14 14 14 13 13 13 11 9 9 10 11 11 10 10 11 11 10 9 8 8 7 7 7 7 5 2 2 3 1 2 4 5 5 5 7 9 11 12 13 14 15 15 16 16 16 16 17 18 19 20 22 23 24 26 28 29 29 31 34 33 32 32 31 31 29 26
21 17 14 13 12 11 12 14 11 7 5 11 18 21 19 14 12 13 13 12 12 12 11 10 9 8 8 8 8 9 9 8 8 9 9 9 8 8 7 6 5 5 4 2 0 1 1 3 4 4 4 4 6 8 10 11 13 14 16 16 16 16 16 16 16 17 18 19 20 21 23 24 24 26 27 27 28 31 32 32 32 30 29 28 25
16 13 13 11 9 11 16 16 10 13 19 24 26 26 21 17 14 12 11 12 11 10 10 8 7 7 7 6 7 8 7 7 7 7 7 7 8 8 6 4 3 2 1 1 1 1 2 3 3 3 4 5 7 9 9 11 12 13 14 16 17 16 16 15 15 16 17 18 20 21 22 24 24 25 26 25 26 27 28 30 31 29 26 26 25
10 10 15 17 16 20 25 22 19 24 29 29 27 25 22 21 18 14 12 11 10 9 8 7 7 7 6 6 6 6 5 5 5 5 5 5 6 7 6 3 2 1 2 2 1 1 1 2 4 4 5 6 7 8 9 9 10 11 12 15 16 16 15 14 14 15 16 17 19 20 22 23 24 25 26 26 25 25 26 27 28 28 25 23 23
6 10 18 21 21 24 25 24 23 26 29 27 25 23 22 20 20 18 15 13 11 11 10 9 8 8 7 6 5 4 4 4 3 3 3 3 4 5 5 4 1 1 3 3 2 2 3 4 4 4 5 5 6 7 8 9 10 11 13 14 16 16 15 13 13 15 16 17 19 20 21 23 24 25 26 26 26 26 25 26 26 26 24 23 22
11 17 22 23 23 23 23 22 23 24 24 23 22 21 20 18 18 18 17 16 15 14 13 11 10 9 7 7 6 5 5 4 3 2 2 2 1 2 5 6 4 1 1 1 2 3 4 4 3 2 3 3 4 6 8 9 11 12 13 15 17 15 13 13 14 15 16 18 19 20 21 23 24 24 24 24 25 25 25 25 25 24 23 23 22
14 19 21 22 23 22 21 21 21 21 21 21 20 19 19 18 18 18 17 17 17 16 15 13 11 10 9 8 8 6 6 5 4 2 2 2 3 1 2 6 6 4 3 2 2 2 2 1 1 1 1 2 4 6 8 10 12 13 14 15 15 13 12 12 14 14 16 17 18 20 21 23 24 24 24 24 24 24 24 25 25 24 24 23 22
14 17 19 20 20 19 19 19 18 18 18 18 18 18 18 18 18 18 17 16 16 17 16 15 14 13 12 11 9 8 7 5 4 2 2 2 1 2 1 3 6 6 5 4 3 2 1 2 2 1 1 3 4 6 9 11 13 14 14 13 12 10 10 11 12 14 15 17 18 20 22 23 24 24 23 23 24 25 25 25 25 25 25 26 24
15 16 16 16 15 15 15 15 16 16 17 17 17 18 17 16 16 17 18 18 18 18 17 18 18 17 14 13 11 10 8 6 5 4 3 2 2 1 1 3 5 6 5 4 3 3 2 3 3 1 1 3 5 7 10 12 13 13 12 11 9 9 9 10 11 13 15 16 18 20 21 23 24 24 23 23 23 24 25 25 25 25 25 26 25
12 11 11 11 11 12 12 13 13 14 14 14 15 15 14 14 14 15 14 14 16 17 18 19 19 17 15 14 13 11 9 8 8 7 7 6 5 4 4 5 5 6 5 4 3 3 3 3 2 1 2 4 6 9 11 12 12 11 10 9 8 8 9 10 12 13 15 16 18 19 21 22 23 23 24 23 23 24 24 24 24 24 23 23 23
7 6 6 8 9 10 10 9 10 10 11 12 13 13 14 14 15 14 12 12 15 17 19 20 19 18 16 15 14 12 10 10 10 10 11 11 10 8 8 7 6 6 6 5 4 3 3 3 2 1 2 4 6 9 11 11 10 9 9 7 7 9 10 11 12 13 14 16 17 18 20 22 23 23 24 24 24 24 23 23 24 23 21 21 21
5 7 8 8 8 8 8 7 8 9 9 9 10 11 12 13 13 13 13 15 17 18 18 19 19 18 17 16 13 11 10 10 10 10 11 12 13 13 12 9 8 7 6 5 4 4 4 3 2 2 2 4 6 9 10 10 9 8 7 6 6 8 9 10 11 12 13 15 16 18 19 20 21 22 23 23 24 24 24 24 24 24 23 22 22
9 10 10 8 7 7 7 7 8 8 8 8 9 11 12 13 13 12 13 16 17 16 17 18 18 18 18 16 13 11 11 10 9 9 10 10 12 13 13 10 8 7 6 5 4 4 4 3 2 2 2 4 6 9 10 9 8 7 6 5 5 7 9 10 11 12 12 13 15 17 18 19 20 21 21 22 23 25 25 25 25 25 24 24 23
10 10 9 8 7 7 7 8 8 8 8 9 9 9 8 10 11 10 10 13 15 16 17 17 17 18 19 18 15 13 11 10 10 10 9 9 11 13 12 10 7 6 6 5 4 4 4 4 3 3 2 4 6 8 9 9 7 6 5 4 5 6 8 9 10 11 12 13 14 16 17 17 19 20 20 21 22 23 25 25 25 25 25 24 23
10 10 8 7 6 6 6 8 10 11 11 9 8 5 6 7 8 8 8 10 14 16 17 17 16 17 19 18 16 14 12 11 11 10 9 9 11 12 10 9 7 6 6 5 4 4 5 4 4 4 2 3 6 8 9 8 6 5 5 4 4 5 7 9 10 11 12 13 14 15 16 16 17 18 19 19 20 22 24 25 24 25 25 24 23
9 8 7 6 6 5 7 10 11 10 7 5 5 7 8 8 9 10 10 10 13 15 16 16 16 18 19 19 17 16 14 12 11 10 9 10 11 10 9 9 8 7 7 7 6 5 5 5 5 4 2 3 4 7 8 8 6 5 4 3 3 4 7 8 9 11 12 13 14 14 14 15 16 17 17 18 19 20 22 23 23 24 24 24 23
7 7 6 5 5 5 7 8 8 5 4 5 6 8 9 9 10 11 11 11 11 12 13 14 16 18 19 18 17 15 13 12 12 11 10 10 10 11 10 8 8 9 10 9 7 6 6 5 4 3 2 2 3 6 9 9 6 5 4 3 2 3 6 7 8 9 11 12 13 13 13 14 14 15 15 15 16 18 20 21 22 23 23 23 23
7 6 4 4 4 5 6 6 5 4 3 4 6 7 8 10 11 12 12 12 12 12 13 15 17 19 19 18 16 14 13 12 12 12 11 11 11 12 10 9 8 10 12 11 9 7 6 5 4 3 2 1 2 4 8 10 8 6 5 4 2 2 4 6 7 8 10 11 12 11 12 13 13 13 14 14 15 17 19 20 21 22 22 23 24
7 5 4 2 3 4 5 5 5 5 5 7 8 8 9 11 12 12 13 13 13 14 14 15 17 19 20 18 16 14 13 13 13 12 12 11 10 11 11 10 10 11 13 13 11 8 7 6 4 2 1 1 2 3 6 9 9 7 6 5 3 2 2 4 5 6 8 10 10 9 10 11 12 11 12 13 15 16 18 18 20 21 22 22 24
7 6 4 3 2 2 3 5 6 8 8 9 10 11 12 12 13 13 14 14 14 14 15 15 17 19 20 20 18 16 14 14 14 14 13 12 11 11 11 10 10 12 14 15 12 10 8 6 4 3 2 1 1 2 5 8 10 9 7 6 4 3 2 2 3 4 6 8 8 7 8 10 10 10 12 13 14 15 16 17 18 20 22 22 23
5 5 4 4 3 3 1 1 3 5 7 9 11 12 13 13 14 14 14 15 15 15 16 16 18 19 20 21 19 17 16 16 16 16 15 14 13 13 12 11 11 13 15 15 13 10 9 7 5 4 3 2 2 2 4 7 10 10 9 8 6 4 3 2 2 3 4 6 7 5 6 8 9 10 11 13 13 14 16 17 18 20 21 22 22
3 4 4 4 4 4 3 3 2 1 1 3 6 9 12 14 16 16 16 16 17 18 19 19 19 19 20 21 20 19 18 17 16 16 16 16 15 15 14 13 14 15 16 16 14 12 10 8 6 5 4 4 3 2 3 6 8 9 10 9 7 5 3 3 2 1 3 4 4 4 4 7 9 10 11 12 13 14 15 16 17 19 20 21 21
Wind_Direction
203 203 202 201 202 202 202 202 201 201 203 206 208 208 209 210 208 205 203 205 207 211 217 220 222 227 232 239 247 254 257 255 252 256 263 268 272 276 281 286 288 287 285 283 281 277 273 268 266 267 268 263 257 256 255 249 250 258 265 269 268 266 261 253 249 272 285 290 296 305 313 315 315 318 320 319 321 322 321 320 318 316 315 313 312
205 204 202 201 202 201 201 200 200 200 201 205 208 209 211 212 209 205 205 209 213 217 223 225 229 236 241 249 255 255 255 255 257 263 269 273 278 284 289 289 289 288 285 285 286 285 280 276 273 273 273 268 262 264 262 252 254 265 269 267 266 265 263 259 257 263 280 288 292 300 307 308 308 313 316 314 315 316 316 316 316 314 311 311 309
206 204 202 202 201 200 199 198 197 197 199 205 210 214 216 215 212 209 209 214 217 219 225 231 236 242 244 247 248 249 253 257 260 265 269 276 283 287 288 285 285 287 287 288 290 289 284 279 278 279 279 274 270 270 266 261 264 270 270 268 263 263 264 261 260 262 271 283 288 293 300 303 304 307 311 311 311 312 311 312 312 311 310 309 307
206 204 203 202 200 197 193 188 185 187 197 210 220 224 223 220 217 213 212 216 218 219 227 234 239 242 241 241 243 248 254 256 259 265 271 279 283 281 279 280 283 287 288 289 290 288 284 280 281 284 284 280 277 275 271 269 271 271 272 270 264 263 266 262 261 265 268 277 284 287 293 299 301 304 307 308 308 309 309 308 308 308 308 307 306
206 205 203 201 199 190 175 168 174 187 204 214 223 229 228 223 218 215 216 219 219 222 231 236 240 243 243 243 246 251 256 259 264 269 273 275 275 274 278 284 288 288 286 284 284 282 281 280 283 287 287 283 280 279 276 275 276 276 277 275 269 268 268 264 264 268 266 269 280 287 292 296 298 302 306 306 307 309 309 308 307 306 306 306 304
206 205 202 200 194 168 147 157 173 193 213 217 222 227 226 223 221 218 219 219 220 226 234 239 243 246 248 248 248 252 256 262 268 269 267 267 268 274 282 287 289 287 281 277 277 277 277 278 282 285 285 282 281 281 280 280 280 281 281 280 276 273 270 268 269 270 267 269 277 285 291 294 296 300 305 306 305 306 307 307 307 306 305 304 302
206 204 202 196 172 140 141 161 179 197 213 219 223 226 225 225 224 220 220 221 223 230 237 242 246 246 245 246 249 253 256 260 264 262 260 265 271 276 280 282 283 282 279 276 274 273 273 274 277 279 281 283 284 284 283 282 282 283 283 283 281 276 272 272 273 270 268 270 276 282 289 293 293 295 302 306 303 302 304 305 305 306 305 302 300
204 204 198 177 142 134 148 173 193 205 212 217 224 226 224 225 225 221 220 223 225 232 237 240 239 236 235 239 244 249 253 256 256 255 259 266 269 270 271 272 277 278 278 277 275 270 268 270 273 275 279 284 287 288 286 283 283 283 285 285 282 278 275 274 274 271 269 270 275 281 287 292 294 296 301 304 302 302 306 304 301 302 303 301 298
203 192 163 136 130 139 162 186 200 211 220 224 226 226 224 225 226 223 223 226 229 232 236 234 230 228 229 234 242 249 252 254 254 255 262 266 264 264 265 268 272 274 274 274 274 274 275 279 281 281 280 281 286 289 287 285 282 281 284 286 283 279 276 273 271 268 268 270 274 279 284 288 291 295 298 301 300 302 305 303 298 298 300 298 296
180 148 134 136 143 158 177 187 195 213 231 237 233 227 225 226 228 228 229 231 233 235 236 232 228 229 234 238 246 251 252 253 256 258 262 265 265 263 264 268 270 270 271 272 274 278 284 288 290 289 284 281 282 285 287 288 284 281 283 284 280 277 273 269 267 265 266 267 271 277 281 283 287 292 296 300 301 302 302 300 297 298 299 296 294
155 149 150 152 159 170 174 174 192 218 235 245 238 228 226 228 230 232 233 233 235 237 237 233 231 236 240 244 248 250 250 251 255 258 260 263 265 263 264 268 269 268 269 271 273 279 286 289 290 290 287 282 279 281 286 289 290 288 286 282 276 272 268 265 265 266 265 264 268 275 277 278 286 293 297 300 301 301 300 299 297 297 297 294 293
157 160 161 162 165 165 158 165 203 223 235 244 238 228 227 229 232 233 234 233 235 236 234 232 236 240 242 245 249 250 252 254 255 258 259 260 261 262 264 268 269 268 267 267 271 280 288 290 289 288 286 283 279 280 282 286 290 292 288 281 276 272 269 268 269 270 268 264 267 274 277 279 286 293 297 299 302 302 300 298 295 293 291 289 287
161 160 161 163 159 151 154 183 216 226 231 236 234 228 227 229 232 233 233 233 233 233 232 233 238 242 244 248 252 254 257 260 261 261 260 259 259 260 262 265 268 267 264 261 268 283 290 289 287 285 284 282 278 278 279 281 287 289 285 282 280 279 279 278 277 276 273 269 267 272 279 284 286 292 298 300 301 300 299 296 294 292 289 286 284
150 148 150 154 156 161 178 204 221 225 227 230 229 226 226 229 231 232 233 233 232 232 231 234 240 244 248 251 254 257 261 264 266 266 263 262 261 260 260 263 265 264 258 258 270 284 287 285 284 284 283 281 278 276 278 281 283 284 282 282 284 287 289 286 282 281 279 275 271 273 282 287 286 290 298 301 298 296 295 294 294 293 289 286 285
149 151 157 165 172 178 190 210 220 222 225 227 225 224 226 229 231 232 233 232 232 233 234 237 243 246 250 254 256 259 264 267 270 270 268 267 264 261 259 259 259 257 254 258 271 282 282 277 280 284 284 284 282 281 282 282 281 280 280 283 288 291 292 289 287 288 287 283 279 280 286 290 289 290 295 300 302 299 297 296 295 293 290 289 287
161 166 171 176 181 185 197 211 216 216 219 223 222 223 226 229 231 233 233 233 233 235 236 239 243 247 251 254 256 260 266 271 273 272 271 271 268 261 255 253 254 253 253 261 273 279 277 274 279 285 288 289 288 287 286 281 278 279 283 289 294 294 294 294 294 294 293 291 291 292 294 295 293 291 295 303 307 306 303 299 296 295 292 289 288
173 177 179 178 183 194 204 210 212 211 215 220 221 223 227 230 232 232 232 232 233 234 235 238 243 248 251 253 257 263 267 271 272 270 269 270 264 255 249 248 250 252 256 264 273 275 274 277 285 290 290 291 289 287 283 279 280 287 293 297 297 296 298 301 300 300 300 299 299 298 298 297 294 294 297 304 308 308 304 298 296 298 295 289 289
178 181 181 179 187 200 205 205 208 213 217 221 224 225 227 230 231 231 231 231 232 233 236 239 243 245 249 256 262 266 267 267 267 266 266 263 255 248 246 248 251 254 258 266 272 276 280 285 290 289 286 286 285 280 278 282 291 298 300 301 300 299 303 307 307 306 306 306 306 306 306 305 302 301 302 304 308 309 305 297 296 299 296 289 288
185 186 184 183 191 202 200 196 207 218 221 223 227 227 227 229 230 231 231 232 233 235 235 238 242 245 251 259 262 264 267 266 261 259 261 258 251 247 248 251 253 255 261 269 274 278 286 291 290 285 281 283 281 277 282 292 300 305 304 303 304 305 308 311 310 309 308 309 312 312 312 312 310 309 310 310 313 315 310 303 301 300 296 291 288
193 190 184 182 190 200 196 193 206 217 222 226 228 227 227 229 230 230 232 233 234 234 235 237 240 243 247 248 249 260 264 259 255 259 261 256 252 251 252 253 255 260 268 273 276 282 292 297 293 284 279 279 277 281 292 300 305 309 308 309 311 309 310 310 309 309 309 308 310 312 313 315 316 317 317 317 319 321 318 313 309 304 299 295 288
194 187 181 182 189 196 195 196 206 220 230 231 231 229 229 231 233 234 234 233 230 229 230 232 232 232 232 227 230 253 254 249 253 258 258 254 253 255 255 256 261 267 271 274 279 288 296 299 299 289 277 273 278 289 300 306 311 316 315 315 313 309 309 310 309 310 310 309 313 315 317 320 322 323 323 323 323 324 322 320 317 312 307 301 291
188 183 181 183 189 193 192 193 202 223 238 240 237 237 238 240 241 239 234 230 226 222 219 218 215 209 207 210 239 261 251 247 250 250 252 256 257 258 258 261 265 267 268 274 283 292 297 299 301 294 281 280 288 297 305 312 321 323 318 316 312 309 310 312 312 315 317 318 322 322 322 324 325 325 327 326 325 325 324 322 321 320 319 314 303
182 180 181 185 189 187 179 177 192 218 239 247 244 248 253 252 247 240 233 226 218 209 206 202 191 191 214 238 259 252 241 239 246 250 257 261 259 260 261 261 261 262 268 281 292 298 300 300 297 293 292 295 296 297 309 321 324 322 320 317 314 313 316 320 324 327 327 328 330 327 326 328 327 326 327 325 325 326 324 323 326 328 329 329 323
176 177 181 184 183 173 159 170 205 229 244 252 253 262 264 257 247 237 228 217 201 192 199 199 192 213 252 256 240 227 226 237 251 256 261 261 259 259 257 255 259 265 277 291 298 302 305 303 300 299 298 297 290 291 319 327 320 317 319 319 319 323 330 335 340 341 338 336 336 330 328 329 328 325 325 324 326 327 326 329 335 337 336 339 341
173 178 181 181 178 171 168 187 213 233 242 243 257 267 262 251 240 227 213 198 183 186 204 209 212 236 248 229 213 213 225 242 250 254 258 257 254 252 251 254 263 273 286 296 299 302 304 305 306 304 294 283 291 322 330 323 314 314 318 321 327 337 345 348 350 349 344 339 336 330 328 330 329 327 327 329 330 331 332 336 341 342 343 346 351
169 176 182 183 181 179 177 182 198 216 225 236 255 266 259 243 226 208 196 187 186 197 208 213 221 230 222 211 210 216 228 238 245 249 250 246 244 245 249 259 269 279 289 294 297 301 303 304 306 303 287 314 352 344 334 321 316 317 320 328 341 353 357 357 356 354 348 340 335 330 328 329 331 333 335 336 335 335 337 337 338 341 345 347 348
163 163 163 153 144 151 156 172 209 220 220 231 253 259 244 227 210 198 195 197 202 209 214 214 214 210 207 211 215 218 228 236 239 239 237 235 237 243 252 262 271 280 287 291 296 301 299 291 261 150 112 60 355 334 330 330 333 337 344 352 358 3 5 3 2 360 353 344 336 332 330 334 338 340 340 339 336 338 341 340 339 342 345 344 342
162 155 149 146 151 162 171 208 231 225 207 213 230 220 209 206 204 205 208 209 211 213 210 207 205 203 205 210 211 216 228 235 236 234 232 231 236 245 255 265 274 282 290 297 304 301 267 178 158 171 198 288 318 329 338 352 4 6 6 7 5 6 9 8 6 6 2 352 343 338 338 341 343 343 342 339 337 340 344 345 345 344 344 345 345
160 156 155 163 173 176 177 189 201 191 164 165 179 185 193 204 211 211 209 209 211 211 207 202 201 203 206 210 214 221 232 239 240 236 231 231 240 250 257 265 275 286 297 307 307 262 196 177 211 277 298 317 330 344 359 12 17 15 15 13 8 6 9 9 6 6 4 358 350 344 343 344 344 344 344 341 339 342 345 347 348 345 344 346 347
129 133 139 147 153 158 163 161 151 141 142 161 183 193 200 207 206 200 197 198 198 198 199 197 196 197 203 212 221 229 239 246 240 231 229 235 245 250 254 260 272 286 302 315 301 220 204 252 322 327 335 343 357 12 19 19 15 12 11 10 7 4 4 5 5 3 2 359 354 348 345 344 344 345 345 341 340 343 345 348 350 348 347 349 347
105 108 115 127 137 146 148 141 135 142 201 226 218 205 194 186 183 182 182 181 180 183 188 189 189 196 205 212 218 222 226 230 225 222 229 239 244 241 239 248 268 288 309 330 307 203 277 325 335 344 357 17 26 24 20 18 15 8 3 2 2 360 358 359 1 1 1 0 357 352 349 346 345 346 345 342 341 342 345 350 353 350 349 351 346
106 119 132 139 148 160 159 161 190 234 235 224 211 197 181 167 161 164 170 175 176 178 182 184 190 198 200 202 205 205 202 205 212 221 231 240 238 227 218 231 266 301 346 353 354 355 336 341 9 30 37 38 32 22 14 12 11 6 360 358 357 354 353 355 357 360 3 3 359 354 352 350 348 347 346 345 344 344 345 349 351 348 348 351 347
113 154 175 179 184 186 187 196 215 219 211 203 195 187 180 173 166 162 163 168 171 172 173 176 183 186 185 186 190 191 193 199 208 219 230 239 231 213 205 219 263 354 19 2 3 35 52 65 68 58 45 36 26 16 10 7 3 359 357 355 351 348 348 351 355 0 6 7 3 359 356 355 352 350 348 348 348 347 346 348 349 347 348 348 346
139 178 190 195 199 199 202 210 212 204 197 193 188 184 184 183 179 173 167 164 165 166 166 168 175 177 174 173 173 176 185 189 191 204 226 244 238 220 217 222 233 8 10 18 53 99 101 87 73 53 36 25 12 4 5 2 356 352 351 349 346 345 347 353 1 7 11 12 9 5 2 360 357 352 349 349 351 350 348 348 349 348 348 347 347
187 182 188 201 213 216 214 213 206 196 191 190 188 188 188 189 188 185 182 178 172 165 163 167 171 170 163 158 157 159 160 154 152 182 238 311 333 235 222 219 220 269 357 57 99 109 103 85 64 37 14 5 358 356 356 353 351 349 346 345 344 345 350 359 8 12 15 16 13 9 6 4 0 356 351 349 351 351 348 346 347 348 348 349 349
187 185 195 211 222 222 218 211 204 198 195 194 194 195 195 195 195 195 194 188 175 167 166 166 165 162 160 158 156 157 158 156 156 190 275 335 12 16 223 216 216 219 211 186 161 137 125 101 42 10 348 341 347 349 346 344 344 345 344 343 344 348 358 8 12 16 18 18 15 12 9 6 3 360 356 353 352 352 350 347 348 350 352 354 354
182 192 203 211 213 210 207 205 203 201 200 200 201 202 202 202 201 199 193 183 174 171 172 170 169 169 168 167 168 172 176 177 176 200 265 290 339 14 335 213 207 205 200 195 192 186 185 189 187 185 329 335 340 343 342 341 341 342 344 345 349 357 7 13 18 21 20 19 18 15 11 9 7 4 359 355 354 355 354 353 351 351 356 0 1
174 181 185 188 189 190 192 195 197 199 202 206 206 205 204 203 201 200 193 182 177 179 179 178 179 180 178 177 182 186 189 194 197 203 219 238 249 238 201 197 201 202 199 193 186 177 163 162 171 198 322 336 341 344 343 342 342 344 347 351 359 10 16 19 23 25 22 20 19 17 14 11 10 8 3 359 357 356 356 356 356 354 357 1 2
148 153 161 170 177 183 189 193 196 200 205 207 205 203 203 202 200 200 194 181 178 184 186 185 187 190 189 187 188 191 196 207 217 220 219 223 231 223 207 204 209 209 206 199 186 173 168 167 175 234 313 334 343 346 345 344 345 349 351 357 11 22 25 26 27 26 24 22 19 18 17 15 13 12 9 4 2 0 359 359 360 358 356 357 358
111 126 155 171 177 182 189 195 199 204 208 206 203 201 202 202 200 199 194 186 186 191 194 195 196 197 195 194 194 196 203 217 232 237 232 230 231 226 214 211 214 213 211 209 201 195 193 188 190 244 305 333 344 347 349 350 353 355 358 8 26 30 28 30 30 26 24 22 20 19 19 16 15 15 12 8 6 7 5 3 3 3 1 359 360
144 163 176 177 173 173 177 185 197 203 201 197 194 193 195 199 202 202 200 198 197 198 202 206 207 203 200 199 200 204 213 227 237 239 237 236 232 223 214 213 217 218 218 218 216 210 205 198 205 254 303 337 347 352 356 358 359 1 5 16 30 31 29 30 30 28 26 23 21 20 19 18 18 16 12 10 12 13 12 11 9 7 8 8 7
163 170 173 170 167 170 173 177 184 186 182 180 181 183 189 198 203 204 204 202 201 203 208 212 211 206 201 200 203 211 222 232 234 232 236 237 228 215 208 209 214 218 223 227 227 220 215 213 224 256 303 339 347 352 357 358 360 5 11 15 24 29 29 28 27 28 27 24 22 21 19 19 21 19 16 16 18 17 16 15 14 12 12 13 13
160 164 163 163 167 172 175 175 170 163 159 159 158 163 180 193 196 198 203 205 206 209 212 212 210 205 201 200 205 214 221 224 226 230 234 225 209 202 201 203 207 214 223 229 230 224 225 231 239 251 291 337 347 352 355 357 1 7 9 13 22 26 26 24 22 22 23 23 23 22 19 19 22 22 21 21 22 22 20 18 17 17 16 15 16
150 147 144 147 153 160 168 165 153 144 141 141 143 163 203 211 201 197 201 207 212 215 216 214 210 203 198 199 204 209 213 215 220 225 223 206 195 195 197 198 199 205 213 215 214 220 231 243 246 248 282 335 350 358 2 5 6 5 5 13 24 23 21 20 18 16 18 20 20 19 19 20 21 23 24 24 24 26 25 22 19 19 20 19 20
133 133 133 137 146 158 167 164 158 158 169 192 219 232 233 227 219 214 208 206 210 214 217 217 211 202 197 197 202 205 208 214 221 223 218 207 200 200 201 200 201 210 217 215 213 220 236 246 246 250 288 331 354 10 15 13 10 8 3 3 13 16 17 17 14 11 12 13 13 15 18 20 22 24 26 26 27 29 28 27 25 24 23 22 22
128 129 131 136 145 156 166 171 176 193 230 246 240 232 224 217 215 212 206 203 208 213 215 213 207 200 197 200 202 205 209 218 225 227 222 212 205 203 203 205 212 222 224 220 216 223 235 241 244 258 297 331 4 20 20 17 15 13 5 359 3 11 12 11 8 6 6 3 4 10 15 18 22 26 28 28 30 32 33 34 33 31 28 26 25
122 121 126 137 149 158 170 184 197 210 214 208 210 215 214 210 208 208 210 216 223 224 220 212 205 202 202 204 205 206 212 218 223 224 221 216 211 210 212 218 224 223 219 216 216 224 231 234 240 257 291 340 14 22 23 23 22 15 3 356 346 345 2 6 2 360 359 357 357 5 13 16 20 27 32 34 36 36 36 39 39 37 35 33 30
121 123 130 149 180 191 201 211 214 213 209 207 209 214 215 214 214 214 214 217 221 221 219 213 208 206 207 206 205 207 212 214 214 213 213 213 212 212 214 220 224 219 213 211 215 221 226 229 238 250 258 312 9 19 24 26 24 17 6 358 336 305 335 3 358 352 353 355 356 4 13 15 19 30 37 41 43 42 41 43 44 43 42 41 37
115 113 113 112 135 206 235 242 237 232 229 225 222 221 220 220 221 219 214 210 211 214 216 215 212 210 209 207 205 207 209 206 201 201 202 203 204 206 208 212 216 215 212 210 212 218 223 227 231 234 234 245 336 11 17 20 20 15 6 357 339 300 287 333 351 351 352 353 356 5 13 16 25 39 45 47 50 50 48 48 49 48 48 47 44
110 112 116 114 113 116 130 209 232 240 244 242 239 236 233 230 232 232 226 219 216 216 218 220 219 216 213 210 207 207 207 204 199 199 201 204 206 209 211 212 213 214 213 213 215 218 221 221 221 221 227 239 266 325 3 12 14 10 5 356 339 305 275 282 322 346 350 352 357 9 20 24 35 47 51 52 55 56 55 56 55 52 52 52 51
134 130 130 131 127 119 110 103 103 108 266 268 266 261 253 247 244 243 239 232 226 224 225 226 227 225 222 218 214 212 211 210 206 205 209 214 217 220 221 218 214 211 212 214 216 217 216 216 216 217 223 237 254 282 336 360 5 6 5 358 341 308 271 260 277 325 353 355 357 12 28 34 40 47 52 56 59 60 61 63 61 57 57 57 57